This is the latest recevied weather packets stored in our database for station/object NY3Q. If no packets are shown the sender has not sent any weather packets the latest 10 day(s).
| Time | Temp. | Humidity | Pressure | Rain* | Wind** | Luminosity | Snow |
|---|---|---|---|---|---|---|---|
| 1777554019 | 23.89° C | 83% | 1011.7 hPa | 0 mm | - | 85 W/m² | - |
| 1777553715 | 23.89° C | 83% | 1011.3 hPa | 0 mm | - | 76 W/m² | - |
| 1777553109 | 23.89° C | 83% | 1011.3 hPa | 0 mm | - | 95 W/m² | - |
| 1777551898 | 23.33° C | 84% | 1010.9 hPa | 0 mm | - | 41 W/m² | - |
| 1777551595 | 23.33° C | 84% | 1011.1 hPa | 0 mm | - | 34 W/m² | - |
| 1777550078 | 22.78° C | 85% | 1011 hPa | 0 mm | - | 41 W/m² | - |
| 1777548257 | 22.22° C | 85% | 1011.1 hPa | 0 mm | - | 17 W/m² | - |
| 1777547954 | 22.22° C | 85% | 1010.9 hPa | 0 mm | - | 14 W/m² | - |
| 1777547650 | 22.22° C | 84% | 1010.8 hPa | 0 mm | - | 12 W/m² | - |
| 1777547347 | 21.67° C | 84% | 1010.4 hPa | 0 mm | - | 9 W/m² | - |
| 1777547045 | 21.67° C | 84% | 1010.6 hPa | 0 mm | - | 7 W/m² | - |
| 1777545831 | 21.67° C | 83% | 1010 hPa | 0 mm | - | 1 W/m² | - |
| 1777544923 | 21.67° C | 83% | 1010 hPa | 0 mm | - | 0 W/m² | - |
| 1777544619 | 21.67° C | 82% | 1009.9 hPa | 0 mm | - | 0 W/m² | - |
| 1777544315 | 21.67° C | 82% | 1009.5 hPa | 0 mm | - | 0 W/m² | - |
| 1777544012 | 21.67° C | 81% | 1009.5 hPa | 0 mm | - | 0 W/m² | - |
| 1777542191 | 22.22° C | 79% | 1009.6 hPa | 0 mm | - | 0 W/m² | - |
| 1777541888 | 22.22° C | 79% | 1009.8 hPa | 0 mm | - | 0 W/m² | - |
| 1777541281 | 22.22° C | 78% | 1009.6 hPa | 0 mm | - | 0 W/m² | - |
| 1777540977 | 22.22° C | 78% | 1009.5 hPa | 0 mm | - | 0 W/m² | - |
| 1777540675 | 22.22° C | 78% | 1009.9 hPa | 0 mm | - | 0 W/m² | - |
| 1777540068 | 22.22° C | 76% | 1009.9 hPa | 0 mm | - | 0 W/m² | - |
| 1777538853 | 22.22° C | 75% | 1009.6 hPa | 0 mm | - | 0 W/m² | - |
| 1777538553 | 22.22° C | 75% | 1009.5 hPa | 0 mm | - | 0 W/m² | - |
| 1777538248 | 22.22° C | 75% | 1009.8 hPa | 0 mm | - | 0 W/m² | - |
* Rain latest hour (hover to see other rain measurements)
** Current wind speed in m/s (hover to see current wind gust speed)